Weather History for LEPA - November, 2012

Change the Weather History Date:

Monday, November 26, 2012

  Actual Average Record
Temperature  
Mean Temperature 58 °F -  
Max Temperature 67 °F 60 °F - ()
Min Temperature 48 °F 42 °F - ()
Degree Days  
Heating Degree Days 8    
Growing Degree Days 8 (Base 50)    
Moisture  
Dew Point 56 °F    
Average Humidity 93    
Maximum Humidity 100    
Minimum Humidity 66    
Precipitation  
Precipitation 0.00 in 0.06 in - ()
Sea Level Pressure  
Sea Level Pressure 29.95 in    
Wind  
Wind Speed 2 mph ()    
Max Wind Speed 18 mph    
Max Gust Speed -    
Visibility 4.5 miles    
Events Fog , Rain    
T = Trace of Precipitation, MM = Missing Value Source: Averaged Metar Reports

Daily Weather History Graph

Daily Weather History Graph

Search for Another Location

Airport or City:

Trip Planner

Search our weather history database for the weather conditions in past years. The results will help you decide how hot, cold, wet, or windy it might be!

Date:

Astronomy

Nov. 26, 2012 Rise Set
Actual Time 7:45 AM CET 5:27 PM CET
Civil Twilight 7:16 AM CET 5:56 PM CET
Nautical Twilight 6:42 AM CET 6:29 PM CET
Astronomical Twilight 6:10 AM CET 7:01 PM CET
Moon 4:09 PM CET (11/26) 5:41 AM CET (11/26)
Length of Visible Light 10h 40m
Length of Day
9h 41m
Waxing Gibbous, 96% of the Moon is Illuminated
Nov 26
Waxing Gibbous
Nov 28
Full
Dec 6
Last Quarter
Dec 13
New
Dec 20
First Quarter

Hourly Weather History & Observations

Time (CET) Temp. Dew Point Humidity Pressure Visibility Wind Dir Wind Speed Gust Speed Precip Events Conditions
12:00 AM 51.8 °F 50.0 °F 94% 30.06 in 6.2 mi North 2.3 mph - N/A   Scattered Clouds
12:30 AM 51.8 °F 51.8 °F 100% 30.06 in 6.2 mi NE 1.2 mph - N/A   Scattered Clouds
1:00 AM 51 °F 49 °F 91% 30.06 in 7 mi Calm Calm - -   Mostly Cloudy
1:00 AM 51.8 °F 51.8 °F 100% 30.04 in 6.2 mi Variable 1.2 mph - N/A   Scattered Clouds
1:30 AM 51.8 °F 51.8 °F 100% 30.04 in 6.2 mi Calm Calm - N/A   Scattered Clouds
2:00 AM 53.6 °F 51.8 °F 94% 30.04 in 6.2 mi North 1.2 mph - N/A   Scattered Clouds
2:30 AM 51.8 °F 51.8 °F 100% 30.04 in 6.2 mi Calm Calm - N/A   Scattered Clouds
3:00 AM 50.0 °F 50.0 °F 100% 30.04 in 6.2 mi Calm Calm - N/A   Scattered Clouds
3:30 AM 51.8 °F 50.0 °F 94% 30.04 in 6.2 mi Calm Calm - N/A   Scattered Clouds
4:00 AM 51.8 °F 51.8 °F 100% 30.01 in 6.2 mi Calm Calm - N/A   Scattered Clouds
4:30 AM 51.8 °F 51.8 °F 100% 30.01 in 3.7 mi Calm Calm - N/A Fog Scattered Clouds
4:37 AM 51.8 °F 51.8 °F 100% 30.01 in 1.9 mi NNE 1.2 mph - N/A Fog Scattered Clouds
4:41 AM 51.8 °F 51.8 °F 100% 30.01 in 0.6 mi Calm Calm - N/A Fog Fog
4:49 AM 51.8 °F 51.8 °F 100% 30.01 in 2.5 mi Variable 1.2 mph - N/A Fog Scattered Clouds
5:00 AM 51.8 °F 51.8 °F 100% 30.01 in 0.6 mi NNW 1.2 mph - N/A Fog Fog
5:22 AM 51.8 °F 51.8 °F 100% 30.01 in 1.6 mi Calm Calm - N/A Fog Mostly Cloudy
5:30 AM 51.8 °F 51.8 °F 100% 30.01 in 1.9 mi Calm Calm - N/A Fog Mostly Cloudy
6:00 AM 51.8 °F 51.8 °F 100% 30.01 in 1.9 mi Calm Calm - N/A Fog Scattered Clouds
6:30 AM 50.0 °F 50.0 °F 100% 29.98 in 1.2 mi Calm Calm - N/A Fog Scattered Clouds
6:36 AM 50.0 °F 50.0 °F 100% 29.98 in 0.1 mi Calm Calm - N/A Fog Fog
7:00 AM 49 °F 47 °F 92% 30.00 in 0 mi North 18.4 mph - - Fog Heavy Fog
7:00 AM 50.0 °F 50.0 °F 100% 29.98 in 0.1 mi Variable 1.2 mph - N/A Fog Fog
7:30 AM 51.8 °F 51.8 °F 100% 30.01 in 0.0 mi North 1.2 mph - N/A Fog Fog
7:46 AM 53.6 °F 53.6 °F 100% 30.01 in 1.2 mi Calm Calm - N/A Fog Patches of Fog
8:00 AM 53.6 °F 53.6 °F 100% 30.01 in 0.3 mi Calm Calm - N/A Fog Fog
8:21 AM 51.8 °F 51.8 °F 100% 30.01 in 0.9 mi Calm Calm - N/A Fog Partly Cloudy
8:30 AM 51.8 °F 50.0 °F 94% 30.01 in 1.2 mi Calm Calm - N/A Fog Partly Cloudy
8:40 AM 51.8 °F 51.8 °F 100% 30.01 in 0.5 mi Calm Calm - N/A Fog Fog
9:00 AM 51.8 °F 51.8 °F 100% 29.98 in 0.3 mi Calm Calm - N/A Fog Fog
9:02 AM 51.8 °F 51.8 °F 100% 29.98 in 0.1 mi Calm Calm - N/A Fog Fog
9:30 AM 53.6 °F 53.6 °F 100% 29.98 in 0.1 mi Variable 2.3 mph - N/A Fog Fog
10:00 AM 57.2 °F 57.2 °F 100% 29.98 in 0.3 mi Calm Calm - N/A Fog Fog
10:12 AM 60.8 °F 60.8 °F 100% 29.98 in 4.3 mi Variable 1.2 mph - N/A Fog Patches of Fog
10:30 AM 60.8 °F 60.8 °F 100% 29.98 in 6.2 mi Variable 1.2 mph - N/A Fog Patches of Fog
11:00 AM 64.4 °F 62.6 °F 94% 29.98 in 6.2 mi Variable 2.3 mph - N/A   Partly Cloudy
11:30 AM 66.2 °F 62.6 °F 88% 29.95 in 6.2 mi Variable 2.3 mph - N/A   Partly Cloudy
12:00 PM 66.2 °F 60.8 °F 83% 29.95 in 6.2 mi SW 4.6 mph - N/A   Partly Cloudy
12:30 PM 68.0 °F 60.8 °F 78% 29.92 in 6.2 mi SW 9.2 mph - N/A   Partly Cloudy
1:00 PM 67 °F 58 °F 66% 29.94 in 17 mi SW 8.1 mph - -   Partly Cloudy
1:00 PM 66.2 °F 60.8 °F 83% 29.92 in 6.2 mi SW 6.9 mph - N/A   Partly Cloudy
1:30 PM 66.2 °F 60.8 °F 83% 29.89 in 6.2 mi SSW 6.9 mph - N/A   Partly Cloudy
2:00 PM 66.2 °F 60.8 °F 83% 29.89 in 6.2 mi WSW 8.1 mph - N/A   Partly Cloudy
2:30 PM 66.2 °F 60.8 °F 83% 29.89 in 6.2 mi SW 10.4 mph - N/A   Partly Cloudy
3:00 PM 66.2 °F 60.8 °F 83% 29.86 in 6.2 mi SSW 9.2 mph - N/A   Partly Cloudy
3:30 PM 66.2 °F 60.8 °F 83% 29.86 in 6.2 mi SSW 8.1 mph - N/A   Partly Cloudy
4:00 PM 66.2 °F 60.8 °F 83% 29.86 in 6.2 mi SSW 6.9 mph - N/A   Partly Cloudy
4:30 PM 66.2 °F 59.0 °F 78% 29.86 in 6.2 mi SW 5.8 mph - N/A   Partly Cloudy
5:00 PM 64.4 °F 59.0 °F 83% 29.86 in 6.2 mi SW 4.6 mph - N/A   Partly Cloudy
5:30 PM 64.4 °F 59.0 °F 83% 29.86 in 6.2 mi SSW 4.6 mph - N/A   Partly Cloudy
6:00 PM 64.4 °F 60.8 °F 88% 29.86 in 6.2 mi Variable 1.2 mph - N/A   Partly Cloudy
6:30 PM 64.4 °F 59.0 °F 83% 29.83 in 6.2 mi Calm Calm - N/A   Partly Cloudy
7:00 PM 63 °F 58 °F 78% 29.86 in 9 mi SW 4.6 mph - -   Partly Cloudy
7:00 PM 64.4 °F 60.8 °F 88% 29.86 in 6.2 mi SE 1.2 mph - N/A   Scattered Clouds
7:30 PM 64.4 °F 59.0 °F 83% 29.83 in 6.2 mi Variable 1.2 mph - N/A   Scattered Clouds
8:00 PM 62.6 °F 60.8 °F 94% 29.83 in 6.2 mi Variable 1.2 mph - N/A   Scattered Clouds
8:30 PM 64.4 °F 60.8 °F 88% 29.83 in 6.2 mi Variable 2.3 mph - N/A   Scattered Clouds
9:00 PM 60.8 °F 59.0 °F 94% 29.83 in 6.2 mi SSW 2.3 mph - N/A Rain Light Rain
9:30 PM 60.8 °F 59.0 °F 94% 29.83 in 6.2 mi SW 5.8 mph - N/A Rain Light Rain
10:00 PM 60.8 °F 59.0 °F 94% 29.80 in 6.2 mi Variable 1.2 mph - N/A   Light Drizzle
10:30 PM 60.8 °F 59.0 °F 94% 29.83 in 6.2 mi Variable 2.3 mph - N/A   Partly Cloudy
11:00 PM 60.8 °F 59.0 °F 94% 29.80 in 6.2 mi South 2.3 mph - N/A   Partly Cloudy
11:30 PM 59.0 °F 59.0 °F 100% 29.80 in 6.2 mi Variable 1.2 mph - N/A   Partly Cloudy